Wind_Speed
5 5 4 4 4 3 3 3 3 3 4 4 3 3 2 2 3 3 2 2 2 2 3 2 2 2 2 2 2 1 1 0 0 1 2 2 2 2 3 3 3 3 4
4 4 3 4 3 2 3 2 2 2 2 2 2 2 1 2 2 2 2 2 1 1 1 1 1 1 1 1 1 1 1 1 1 2 2 3 3 3 3 4 4 4 4
3 3 3 3 2 2 1 2 1 1 1 1 1 1 1 1 1 1 1 1 1 1 1 1 1 1 1 1 1 1 2 2 2 3 3 4 4 4 4 5 5 5 5
3 3 3 3 2 2 1 1 1 1 1 2 1 1 1 1 1 2 2 2 2 1 1 2 2 2 3 3 3 3 3 3 3 4 4 5 5 5 5 6 6 6 6
3 3 3 3 2 1 2 1 1 2 2 2 2 2 1 1 2 2 3 3 3 3 3 3 4 3 4 4 4 4 4 4 4 5 5 5 6 6 6 6 7 7 7
3 3 3 3 2 1 2 2 2 2 2 2 2 2 2 2 3 4 4 4 4 4 5 5 5 5 5 5 5 5 5 5 5 6 6 6 6 6 7 7 8 8 9
3 2 3 2 2 2 2 2 2 2 2 2 3 3 4 4 4 5 5 6 6 7 7 7 8 7 7 7 7 7 7 7 7 7 7 7 7 8 8 8 8 9 10
4 4 4 3 2 2 3 3 2 2 3 4 4 4 5 5 5 5 6 7 8 8 8 8 9 9 9 9 9 9 9 9 9 8 8 9 9 9 9 10 10 11 11
5 5 5 4 3 4 4 4 4 4 4 4 5 5 5 6 7 7 8 8 9 9 9 10 10 10 11 11 11 11 11 11 11 11 10 11 11 12 12 12 12 13 13
5 4 4 5 4 4 4 4 5 4 4 5 5 6 7 7 8 8 9 10 10 11 11 11 12 12 12 12 12 12 12 13 13 13 13 13 13 13 14 14 14 15 15
4 4 5 5 5 4 5 5 5 5 5 6 7 7 8 8 9 10 10 11 11 12 12 13 13 14 14 14 14 14 14 14 14 15 15 15 15 15 16 16 16 16 16
5 4 4 5 5 5 5 6 6 7 7 8 8 9 9 10 10 10 11 12 13 13 13 14 14 14 15 16 16 17 17 16 16 16 16 17 17 17 17 18 18 18 18
5 5 5 5 5 5 6 6 7 8 8 9 9 10 10 11 11 11 12 13 14 14 14 14 14 15 16 17 17 18 18 18 18 18 18 18 18 18 19 19 19 20 20
5 5 6 7 7 7 8 8 8 9 9 10 10 10 11 11 12 12 13 13 14 15 15 15 15 15 16 17 17 17 18 18 18 19 19 19 20 19 19 20 21 22 22
6 6 6 7 7 8 9 10 11 11 11 11 11 11 12 12 13 13 14 14 15 15 16 16 16 17 17 17 18 19 18 19 20 20 21 21 21 21 22 22 23 23 24
7 7 7 6 7 8 10 11 11 11 11 12 13 13 13 13 13 13 14 15 16 15 16 16 17 18 18 18 18 20 19 19 20 21 21 22 22 23 24 25 24 25 25
9 8 9 8 8 9 10 11 11 11 12 13 13 14 14 14 14 14 15 15 16 16 17 17 18 19 20 19 19 20 21 20 21 22 23 24 24 25 26 26 27 27 27
10 10 10 10 11 11 11 11 12 13 14 14 15 14 14 14 14 14 15 16 16 16 17 18 19 20 20 21 21 21 22 24 25 25 25 26 26 27 28 28 29 29 29
11 11 11 11 11 11 12 13 13 14 15 15 16 16 15 15 14 15 16 17 17 18 18 18 20 21 22 22 23 23 24 25 25 26 28 28 28 29 30 30 31 31 31
12 12 12 12 12 12 12 13 13 14 14 15 15 16 16 16 16 17 18 18 19 20 20 20 21 22 22 23 24 25 25 26 27 28 29 30 31 31 31 31 32 33 34
12 12 12 12 12 13 13 14 14 15 15 15 16 16 17 17 18 19 20 20 21 21 22 22 22 23 23 24 25 26 26 27 28 29 30 31 32 33 33 33 33 34 35
12 12 12 12 13 13 14 15 15 16 16 16 17 18 18 19 20 20 21 22 23 23 23 23 24 24 25 26 27 28 28 29 30 31 31 32 33 33 34 34 34 35 36
14 13 14 14 14 15 16 16 17 17 18 18 19 20 20 20 21 22 22 23 23 23 24 24 25 26 27 27 28 29 29 30 31 32 33 33 34 35 36 35 36 37 37
14 14 16 16 16 17 18 19 18 19 19 20 20 21 21 21 22 22 23 24 24 24 25 26 26 27 27 28 29 30 31 32 32 33 34 34 35 37 38 38 38 38 39
15 16 17 18 18 19 20 19 19 20 20 20 21 21 22 23 23 24 25 25 25 26 26 27 28 28 29 30 31 31 32 32 33 35 35 36 36 37 38 38 38 39 40
17 17 18 19 19 20 20 20 20 21 21 21 22 22 23 24 24 25 26 26 27 27 28 29 30 30 31 31 32 33 34 35 36 36 37 38 38 39 40 40 40 41 41
Wind_Direction
70 68 67 63 62 55 56 67 65 60 63 68 72 68 64 85 76 63 68 77 70 66 72 79 82 75 68 50 47 42 44 313 250 227 236 251 262 263 255 250 250 253 257
65 68 62 62 57 61 61 56 52 42 50 71 69 61 73 80 60 53 55 60 56 43 47 55 60 42 7 355 1 1 339 298 280 266 262 263 262 258 257 257 258 258 260
57 55 49 47 51 61 69 47 29 0 18 41 34 24 14 25 334 349 2 14 4 351 340 343 336 320 309 314 316 312 310 301 285 276 271 267 259 261 263 263 262 259 260
36 36 34 35 44 46 20 15 352 322 321 346 350 335 318 329 309 301 298 299 300 302 287 281 287 295 287 284 289 295 296 297 290 280 274 268 263 268 267 264 266 265 263
19 21 14 14 26 15 359 6 355 347 342 337 325 324 314 289 296 291 277 282 288 288 281 278 276 282 282 281 284 288 289 290 289 281 278 276 271 272 271 266 267 265 263
7 11 10 12 25 16 349 1 351 346 334 328 321 316 296 282 279 281 279 280 279 277 274 275 273 273 273 275 280 285 286 286 286 283 277 275 272 270 271 269 270 266 263
346 343 352 2 5 9 342 328 314 305 295 298 304 300 298 294 285 281 279 276 275 275 273 276 273 270 269 271 274 277 279 280 281 281 278 275 270 270 270 271 273 270 267
331 320 313 317 317 321 318 306 290 285 288 281 287 294 289 294 294 288 288 284 278 277 276 277 274 272 269 270 270 271 273 274 276 276 276 277 275 274 271 271 274 273 270
328 312 298 305 307 303 299 302 298 292 292 287 279 282 283 284 289 288 290 288 284 280 277 272 272 273 270 267 267 269 271 273 273 273 274 275 274 274 273 273 274 274 272
316 312 310 310 305 295 288 289 295 294 296 293 282 281 283 281 280 279 281 282 284 283 281 278 273 274 272 271 271 271 271 269 273 273 273 273 273 274 274 275 274 273 272
312 314 301 302 305 300 286 282 284 287 290 293 289 283 280 284 286 284 283 282 281 281 279 280 279 276 274 272 273 272 271 272 276 274 274 274 274 272 273 273 271 270 271
299 298 296 291 296 301 293 288 287 289 287 291 289 285 282 284 287 287 286 283 281 281 280 278 278 280 277 275 273 273 274 275 277 276 275 275 274 273 272 272 271 269 269
304 294 287 285 284 291 294 292 291 295 295 294 292 290 290 290 288 290 290 288 286 284 281 279 279 279 279 276 277 276 275 275 273 273 272 272 275 275 274 274 273 272 270
303 291 289 285 280 285 287 287 290 292 293 294 292 291 294 294 292 291 289 289 287 285 283 280 279 279 281 278 281 280 275 274 274 274 274 273 274 276 276 275 274 273 273
297 292 293 292 283 282 284 286 288 288 285 287 290 288 289 292 290 289 288 288 288 286 285 283 281 279 279 277 282 280 277 274 275 275 274 274 273 274 275 275 275 273 273
301 293 297 299 292 286 286 288 290 287 286 286 287 285 285 288 290 291 290 290 291 288 285 285 284 282 281 280 281 281 282 280 277 275 274 274 274 275 274 273 274 273 274
294 293 291 295 298 297 291 293 291 286 286 287 286 286 286 287 289 292 292 293 292 290 288 287 286 285 283 281 281 281 280 280 278 278 279 278 276 276 276 274 274 274 275
290 291 288 289 295 300 300 296 291 288 287 287 285 285 287 287 289 291 293 294 294 292 291 290 289 288 286 283 283 282 281 281 279 279 280 280 280 279 279 278 277 276 275
293 292 291 295 299 301 299 298 295 292 290 287 285 285 285 286 287 292 294 294 295 294 293 292 292 291 288 285 285 284 283 283 283 282 282 281 281 281 280 279 277 276 275
296 294 293 293 293 296 299 299 300 300 296 291 289 288 287 291 290 294 295 295 295 293 292 292 291 291 289 286 285 286 285 285 284 285 284 281 280 280 280 278 277 277 277
302 300 299 297 294 295 298 301 303 304 302 297 291 292 292 293 292 293 295 295 295 293 291 290 290 290 289 289 288 286 286 285 285 285 284 283 282 281 278 279 278 278 277
299 302 304 300 299 298 299 301 302 301 302 300 296 296 297 297 296 295 296 295 294 293 292 291 290 290 290 289 288 287 286 286 285 286 286 284 282 282 281 280 279 278 277
297 298 294 298 299 299 300 301 301 300 300 299 299 299 298 298 296 297 297 297 296 296 295 294 292 291 290 290 290 288 287 287 286 287 286 284 284 284 282 280 279 278 277
295 296 296 299 299 300 301 302 301 299 298 297 297 297 298 298 297 296 296 298 299 297 296 294 294 292 291 291 291 290 288 287 286 287 287 286 285 284 283 281 280 280 278
296 296 295 296 297 299 301 299 300 301 299 298 297 298 298 297 299 300 300 299 299 299 298 297 296 294 293 292 291 290 289 288 288 288 288 287 285 285 284 283 282 280 279
294 294 295 296 298 299 299 298 298 299 300 300 299 299 300 301 302 302 301 301 301 301 300 299 298 296 295 294 292 292 292 291 290 290 290 289 287 286 285 284 283 281 281
Height
5908 5908 5907 5907 5907 5906 5906 5906 5906 5906 5906 5905 5905 5905 5904 5904 5904 5904 5903 5903 5903 5902 5902 5901 5901 5901 5900 5900 5899 5899 5898 5898 5898 5897 5897 5897 5897 5897 5896 5896 5896 5896 5895
5909 5908 5908 5908 5907 5907 5906 5906 5906 5906 5906 5906 5906 5905 5905 5905 5904 5904 5904 5903 5903 5903 5902 5902 5901 5901 5900 5900 5899 5899 5898 5898 5897 5897 5897 5896 5896 5896 5896 5895 5895 5895 5895
5909 5909 5908 5908 5907 5907 5906 5906 5906 5906 5906 5906 5906 5905 5905 5904 5904 5904 5904 5903 5903 5903 5902 5902 5901 5901 5900 5900 5899 5898 5898 5897 5897 5896 5896 5896 5895 5895 5895 5895 5894 5894 5894
5909 5909 5908 5908 5907 5907 5906 5906 5906 5905 5905 5905 5905 5905 5905 5904 5904 5904 5903 5903 5903 5902 5902 5902 5901 5900 5900 5899 5899 5898 5897 5897 5896 5896 5895 5895 5895 5894 5894 5894 5893 5893 5893
5909 5908 5908 5907 5907 5906 5906 5906 5905 5905 5905 5905 5905 5904 5904 5904 5903 5903 5903 5903 5902 5902 5901 5901 5900 5900 5899 5899 5898 5897 5897 5896 5895 5895 5894 5894 5893 5893 5893 5892 5892 5891 5891
5908 5908 5907 5907 5906 5906 5906 5905 5905 5904 5904 5904 5904 5904 5903 5903 5902 5902 5902 5901 5901 5901 5900 5900 5899 5899 5898 5898 5897 5896 5896 5895 5894 5893 5893 5892 5892 5891 5891 5890 5890 5890 5889
5907 5907 5907 5906 5906 5905 5905 5904 5904 5904 5904 5903 5903 5903 5902 5902 5902 5901 5901 5900 5900 5899 5898 5898 5898 5898 5897 5896 5896 5895 5894 5893 5893 5892 5891 5890 5890 5889 5889 5888 5888 5888 5887
5907 5906 5906 5905 5905 5904 5904 5903 5903 5902 5902 5902 5902 5901 5901 5901 5900 5900 5900 5899 5898 5897 5897 5897 5896 5896 5895 5894 5894 5893 5892 5891 5891 5890 5889 5889 5888 5887 5887 5886 5886 5885 5885
5906 5905 5905 5904 5903 5903 5903 5902 5902 5901 5901 5901 5900 5900 5900 5899 5899 5899 5898 5897 5897 5896 5895 5894 5894 5893 5892 5892 5891 5890 5889 5889 5888 5887 5886 5886 5885 5885 5884 5883 5883 5882 5882
5904 5903 5903 5902 5902 5902 5901 5901 5900 5900 5899 5899 5899 5898 5898 5897 5897 5897 5896 5895 5895 5894 5893 5892 5891 5890 5889 5889 5888 5888 5887 5886 5885 5884 5883 5883 5882 5881 5880 5880 5879 5878 5878
5903 5902 5901 5901 5900 5900 5899 5899 5898 5898 5898 5897 5896 5896 5895 5895 5894 5894 5893 5893 5892 5891 5890 5889 5888 5887 5886 5885 5885 5884 5883 5883 5881 5880 5880 5879 5878 5877 5876 5876 5875 5874 5874
5901 5900 5899 5899 5899 5898 5898 5897 5897 5896 5896 5895 5894 5893 5893 5892 5892 5891 5890 5890 5889 5888 5887 5886 5885 5884 5882 5881 5881 5880 5879 5879 5877 5876 5875 5874 5874 5873 5872 5871 5870 5869 5869
5899 5898 5898 5897 5897 5896 5896 5896 5895 5894 5893 5893 5892 5891 5890 5890 5889 5888 5887 5886 5885 5884 5883 5882 5881 5880 5879 5877 5876 5875 5874 5874 5873 5872 5871 5870 5869 5868 5867 5866 5865 5864 5864
5897 5896 5896 5895 5895 5894 5894 5894 5893 5892 5891 5890 5889 5889 5888 5887 5886 5885 5884 5883 5882 5880 5879 5878 5877 5876 5875 5873 5872 5871 5869 5869 5868 5867 5866 5865 5864 5863 5862 5861 5860 5859 5858
5894 5894 5893 5893 5892 5892 5891 5891 5890 5889 5888 5888 5887 5886 5885 5884 5883 5881 5880 5879 5878 5877 5875 5874 5873 5871 5870 5869 5867 5866 5864 5863 5863 5862 5861 5859 5858 5857 5856 5855 5854 5853 5852
5892 5891 5890 5890 5890 5889 5889 5888 5887 5887 5886 5885 5884 5883 5882 5880 5879 5878 5876 5875 5873 5872 5871 5869 5868 5867 5865 5864 5863 5861 5859 5858 5857 5856 5854 5853 5852 5851 5850 5849 5848 5847 5846
5891 5890 5889 5887 5887 5886 5886 5885 5884 5883 5882 5881 5880 5879 5877 5876 5875 5874 5872 5870 5869 5867 5866 5864 5863 5862 5860 5859 5858 5856 5854 5853 5851 5850 5849 5847 5845 5844 5843 5842 5841 5840 5838
5888 5887 5885 5885 5884 5884 5883 5882 5881 5880 5878 5877 5876 5875 5873 5872 5871 5869 5868 5866 5865 5863 5862 5860 5858 5856 5855 5853 5852 5850 5849 5847 5845 5844 5842 5840 5839 5837 5836 5834 5833 5832 5830
5885 5884 5883 5882 5881 5881 5879 5878 5877 5876 5874 5873 5871 5870 5869 5867 5866 5865 5863 5862 5860 5859 5857 5855 5853 5851 5849 5847 5846 5844 5842 5841 5838 5837 5835 5833 5831 5830 5828 5826 5825 5823 5822
5882 5881 5880 5879 5878 5877 5876 5875 5873 5872 5870 5869 5867 5865 5863 5862 5861 5860 5859 5857 5855 5853 5852 5850 5848 5845 5843 5841 5839 5837 5835 5833 5831 5829 5827 5825 5823 5821 5820 5818 5816 5814 5813
5879 5878 5877 5876 5875 5874 5873 5871 5870 5868 5866 5864 5862 5861 5859 5858 5857 5855 5853 5852 5850 5848 5846 5844 5842 5840 5837 5835 5833 5830 5828 5826 5823 5822 5819 5817 5814 5812 5810 5808 5806 5804 5803
5875 5874 5873 5872 5871 5870 5869 5868 5866 5864 5862 5860 5858 5856 5855 5853 5852 5850 5848 5846 5844 5842 5840 5837 5835 5833 5830 5828 5825 5823 5821 5818 5815 5813 5810 5808 5805 5803 5800 5798 5796 5794 5791
5872 5871 5870 5869 5868 5867 5865 5864 5862 5860 5858 5856 5854 5852 5850 5848 5846 5844 5842 5840 5837 5835 5833 5831 5828 5826 5823 5821 5818 5815 5812 5809 5807 5803 5801 5798 5795 5792 5790 5787 5785 5783 5780
5868 5867 5866 5865 5864 5862 5860 5859 5857 5855 5853 5851 5849 5847 5845 5843 5840 5838 5836 5833 5831 5828 5826 5823 5821 5818 5815 5812 5809 5807 5804 5800 5797 5794 5791 5788 5785 5782 5779 5776 5774 5772 5769
5865 5864 5863 5861 5859 5857 5855 5854 5852 5850 5848 5846 5844 5842 5840 5837 5835 5832 5829 5826 5824 5821 5818 5815 5812 5809 5806 5803 5800 5797 5794 5791 5788 5784 5781 5778 5775 5771 5768 5765 5762 5759 5757
5861 5859 5858 5856 5854 5852 5850 5848 5846 5845 5843 5840 5838 5836 5834 5831 5828 5826 5823 5820 5817 5814 5811 5807 5804 5801 5797 5794 5791 5787 5784 5780 5777 5774 5770 5767 5763 5760 5757 5753 5750 5747 5744